Location: Roah Hook
(42.4840°N, 73.7893°W)
Time: 05:46:27
(UTC+00:00)

ACS3 Solar Sail - Visible Passes

Search period start: 14 October 2024 00:00
Search period end: 24 October 2024 00:00
Orbit: 960 x 1033 km, 97.5° (Epoch: 13 October)

Date Brightness Start Highest point End Pass type
(mag) Time Alt. Az. Time Alt. Az. Time Alt. Az.
14 Oct 2.0 00:17:38 46° ESE 00:18:55 53° ENE 00:25:03 10° N visible
14 Oct 3.6 02:02:45 26° W 02:03:03 26° W 02:08:15 10° NW visible
14 Oct 3.3 23:04:08 12° E 23:06:57 16° ENE 23:10:38 10° NNE visible
15 Oct 1.8 00:49:15 73° SSE 00:49:58 90° WNW 00:56:20 10° NNW visible
15 Oct 4.3 02:34:22 14° W 02:34:37 14° W 02:37:47 10° NW visible
15 Oct 2.7 23:35:45 24° E 23:37:38 28° ENE 23:42:49 10° N visible
16 Oct 2.4 01:20:52 52° WSW 01:21:10 52° W 01:27:19 10° NNW visible
17 Oct 2.1 00:07:23 42° E 00:08:31 47° ENE 00:14:29 10° N visible
17 Oct 3.4 01:52:31 30° W 01:52:32 30° W 01:57:59 10° NNW visible
17 Oct 3.4 22:53:55 11° E 22:56:39 14° ENE 22:59:44 10° NNE visible
18 Oct 1.7 00:39:02 74° SE 00:39:32 80° ENE 00:45:51 10° N visible
18 Oct 4.2 02:24:09 16° W 02:24:09 16° W 02:27:53 10° NW visible
18 Oct 2.9 23:25:34 21° E 23:27:20 24° ENE 23:32:11 10° NNE visible
19 Oct 2.2 01:10:41 60° W 01:10:44 60° W 01:16:58 10° NNW visible
19 Oct 2.2 23:57:14 38° E 23:58:11 41° ENE 00:03:59 10° N visible
20 Oct 3.2 01:42:22 34° W 01:42:22 34° W 01:47:45 10° NNW visible
20 Oct 3.5 22:44:07 10° ENE 22:46:26 12° NE 22:48:44 10° NE visible
21 Oct 1.7 00:28:54 69° E 00:29:13 70° ENE 00:35:27 10° N visible
21 Oct 4.0 02:14:02 19° W 02:14:02 19° W 02:17:56 10° NW visible
21 Oct 3.0 23:15:28 19° E 23:17:06 21° ENE 23:21:36 10° NNE visible
22 Oct 2.0 01:00:35 68° W 01:00:35 68° W 01:06:40 10° NNW visible
22 Oct 2.4 23:47:10 34° E 23:47:57 36° ENE 23:53:32 10° N visible
23 Oct 3.0 01:32:17 38° W 01:32:17 38° W 01:37:33 10° NNW visible
23 Oct 3.6 22:35:21 10° ENE 22:36:19 10° NE 22:37:16 10° NE visible
